Simultaneous Nadir Overpasses (SNOs) Predictions

Prediction of SNOs between NOAA-19 and TERRA Satellite Orbit:

Table of predicted SNOs for the next 14.0 days since TLE Epoch: 8/12/2023
Index Date (NOAA-19) Time (NOAA-19) Lat,Lon (NOAA-19) SZA (NOAA-19 ) Date (TERRA) Time (TERRA) Lat,Lon (TERRA) SZA (TERRA ) Distance(km) Time Diff (sec)
1 08/12/2023 06:06:31 -80.86, -59.34 112.85 08/12/2023 06:06:58 -80.86, -59.49 112.86 2.66 27
2 08/12/2023 06:57:29 80.86, 108.23 67.20 08/12/2023 06:56:20 80.86, 108.21 67.17 0.56 69
3 08/14/2023 09:56:57 80.85, 62.82 67.79 08/14/2023 09:57:14 80.84, 62.71 67.77 2.55 17
4 08/16/2023 13:47:25 -80.84,-174.91 111.55 08/16/2023 13:47:29 -80.84,-174.85 111.55 1.21 4
5 08/18/2023 17:37:48 80.85, -52.19 69.19 08/18/2023 17:37:43 80.86, -52.19 69.19 1.01 5
6 08/20/2023 21:28:17 -80.85, 70.02 110.12 08/20/2023 21:27:58 -80.84, 70.04 110.13 0.36 19
7 08/23/2023 00:27:45 -80.83, 24.61 109.46 08/23/2023 00:28:51 -80.81, 24.45 109.47 3.30 66
8 08/23/2023 01:18:39 80.85,-167.40 70.63 08/23/2023 01:18:12 80.85,-167.51 70.61 1.97 27
9 08/25/2023 04:18:06 80.84, 147.32 71.32 08/25/2023 04:19:04 80.84, 147.14 71.32 3.32 58



Historial Predications of SNOs between NOAA-19 and TERRA
